Wind_Speed
21 21 21 17 19 22 25 26 30 35 40 43 47 48 47 45 45 49 53 59 65 71 75 80 84 87 91 95 100 102 101 99 93 87 78 73 67 61 58 54 51 50 50 49 50 50 50 48 52 57 67 72 73 80
21 22 21 23 27 30 33 36 38 43 46 46 45 43 42 44 50 56 63 66 73 77 82 85 84 84 90 91 91 87 81 74 69 64 61 57 51 47 42 39 36 35 37 36 36 33 34 40 45 49 53 55 54 60
25 25 28 31 32 35 39 42 43 47 47 41 40 43 48 53 59 64 71 76 81 87 83 80 80 82 81 76 70 63 59 54 52 49 45 43 36 34 33 30 26 25 22 23 24 23 27 31 35 40 44 45 43 47
24 27 31 32 36 38 41 42 43 39 39 39 44 51 57 63 67 74 80 84 85 82 81 78 76 70 66 59 53 49 46 42 41 39 36 33 30 26 25 23 20 17 14 16 16 18 21 25 29 33 36 34 32 37
26 29 31 35 37 38 37 34 35 36 40 47 53 59 65 71 77 81 85 81 80 81 75 67 63 57 51 47 41 40 36 35 30 29 26 26 24 21 18 15 11 10 8 8 10 14 19 22 25 26 30 30 32 37
28 30 32 29 28 29 29 29 35 42 49 55 60 67 74 80 81 84 82 80 75 64 58 55 49 44 40 36 33 28 29 24 25 23 23 20 18 14 12 13 9 4 1 4 6 12 18 22 25 27 28 27 28 29
23 21 23 23 21 24 30 37 44 50 55 61 69 75 81 85 85 82 84 73 61 53 48 43 38 32 29 28 22 22 17 18 18 16 15 15 14 13 14 12 10 6 7 11 9 7 10 15 19 23 23 23 24 25
15 16 17 19 25 32 38 44 49 55 63 69 76 82 87 86 84 83 67 55 49 43 39 34 28 23 21 20 17 14 12 16 10 12 14 15 18 20 14 11 14 14 14 13 12 11 7 8 9 9 11 11 14 16
13 16 21 27 32 38 43 48 55 62 68 77 84 88 86 86 85 63 54 46 40 35 31 26 21 15 13 12 11 7 9 10 11 16 18 19 18 13 14 18 21 21 19 19 20 16 9 3 5 3 3 2 2 8
18 22 28 33 37 42 48 54 61 68 76 84 88 85 88 85 63 54 47 40 33 27 24 18 14 9 8 6 4 3 5 6 7 11 12 16 15 19 27 27 32 33 33 28 23 20 18 14 9 7 5 5 8 7
22 26 31 36 41 46 52 60 66 75 83 86 84 88 84 63 54 47 39 32 26 21 18 13 9 5 5 4 5 5 3 2 8 8 9 11 19 21 26 28 29 29 31 31 30 27 24 21 19 16 13 9 6 6
25 30 35 40 44 51 58 65 73 80 84 84 88 84 63 54 46 38 31 25 20 16 13 9 5 2 6 8 9 11 12 9 8 5 7 8 16 20 23 22 21 22 24 22 22 23 24 23 23 22 20 19 19 17
29 34 38 42 49 56 62 70 76 79 82 86 82 63 55 47 38 33 27 20 16 12 9 7 4 6 9 12 14 13 12 11 9 7 7 5 7 15 16 16 17 16 13 19 17 17 17 17 16 17 17 16 14 13
32 36 41 47 54 60 67 70 73 78 81 79 62 56 48 39 33 27 21 17 14 11 10 7 5 5 9 11 14 14 15 12 12 11 8 6 5 4 7 4 4 6 10 9 10 12 13 13 13 12 13 12 12 12
34 39 46 52 58 63 64 68 74 76 73 62 57 49 42 35 29 25 19 15 10 8 10 6 5 4 8 11 11 13 13 11 9 12 11 11 10 10 1 4 1 1 1 1 2 3 2 3 5 6 8 10 11 16
37 44 49 56 59 59 63 69 72 72 67 56 53 47 40 33 27 23 19 14 11 7 7 3 1 2 5 8 8 9 10 8 7 8 12 15 12 12 11 7 5 5 5 6 7 6 5 3 1 3 6 8 14 12
40 46 52 54 54 60 64 69 70 70 61 55 51 45 39 32 28 23 18 13 11 7 3 3 4 2 3 7 4 3 1 4 10 8 7 11 13 11 11 11 11 6 6 6 4 5 5 3 4 5 8 15 13 10
44 48 49 50 56 58 65 68 69 70 58 55 50 44 40 33 27 23 17 12 9 5 1 2 3 4 3 3 7 7 5 5 2 3 2 5 7 13 15 13 9 8 9 11 8 5 3 4 5 4 11 14 11 7
44 43 47 52 54 61 67 68 70 69 57 54 51 44 40 36 28 22 16 10 8 6 3 1 3 4 4 3 5 8 7 6 5 2 1 3 7 11 10 8 6 9 12 11 9 7 6 6 5 6 9 15 12 12
40 44 49 53 57 65 68 69 71 69 56 54 53 47 40 35 31 24 19 13 8 6 5 6 6 4 3 1 3 3 5 3 4 5 5 3 4 7 7 6 6 5 10 10 9 8 8 8 9 9 11 14 15 15
41 47 50 53 61 67 69 71 76 71 55 52 54 48 41 36 31 25 20 17 12 8 7 7 6 8 8 7 6 7 6 6 8 8 7 5 6 5 7 8 8 6 6 7 8 9 10 11 11 12 14 16 17 18
44 48 51 57 63 68 70 73 77 71 55 51 54 49 42 36 31 26 21 18 16 14 9 8 10 10 11 13 12 11 11 11 12 12 10 8 9 8 7 7 6 6 6 8 10 12 14 16 17 17 17 19 21 22
47 51 54 59 65 68 71 74 78 68 54 52 55 49 41 35 32 28 22 18 17 17 13 11 12 13 13 13 14 14 15 16 16 15 15 14 12 14 13 13 14 14 14 14 15 16 17 18 19 22 23 23 25 26
51 54 58 63 66 68 71 74 75 62 53 52 55 50 42 36 33 28 25 22 17 17 16 15 13 13 15 16 16 16 17 17 19 17 17 19 17 16 18 20 22 23 23 23 23 23 23 23 24 24 26 26 28 31
54 57 61 64 67 69 72 72 71 57 50 52 54 49 43 38 33 31 26 24 22 19 18 17 16 15 14 16 18 20 20 21 22 20 20 19 20 21 22 23 25 28 30 31 32 32 31 30 30 30 31 32 34 35
56 58 62 67 68 68 70 72 66 54 48 52 52 47 42 38 34 32 28 22 19 19 19 18 16 16 17 20 21 22 22 23 22 22 21 22 24 25 24 24 26 30 31 32 31 32 33 34 35 36 36 37 39 39
57 60 66 68 67 67 69 69 60 50 49 52 50 45 40 36 33 31 27 25 21 20 19 19 19 19 19 20 23 23 22 23 23 24 23 23 23 25 26 26 26 29 32 30 30 30 31 31 30 29 29 30 30 31
61 64 66 68 66 68 69 65 57 50 51 52 48 41 36 34 32 31 28 26 23 21 19 19 19 19 21 23 24 26 24 20 22 25 27 24 19 23 24 25 26 25 27 28 26 27 26 27 27 24 24 26 26 25
64 67 69 67 67 69 67 61 52 53 55 51 45 37 32 30 27 27 25 24 22 20 17 16 15 17 21 23 24 24 23 23 22 24 28 29 25 24 24 24 25 24 23 27 25 23 23 23 22 21 21 22 23 22
68 68 66 67 69 69 63 54 55 56 54 48 42 35 30 28 26 25 24 23 21 18 17 16 15 16 18 20 22 23 24 23 22 21 23 25 25 23 22 21 22 22 19 20 21 19 18 17 17 19 18 17 18 18
67 65 66 69 68 63 54 54 56 52 46 41 36 33 29 27 26 24 23 21 21 20 18 16 14 14 15 17 18 19 19 19 21 21 21 23 23 22 23 21 20 19 18 18 18 18 16 15 15 16 16 16 16 15
65 66 67 66 61 53 54 56 50 45 41 37 33 30 27 23 22 23 24 23 21 19 17 16 16 17 17 17 17 17 18 19 19 18 17 17 17 17 18 18 17 17 17 16 15 16 17 17 16 17 16 16 16 15
64 65 64 58 51 53 54 48 42 39 36 33 31 28 27 25 23 23 23 21 20 19 18 19 20 20 19 17 15 14 15 18 19 18 17 16 15 16 16 16 17 18 18 17 15 15 17 17 17 17 17 17 17 17
Wind_Direction
237 253 253 248 248 265 274 278 281 286 288 287 294 294 294 293 293 293 293 292 294 295 296 297 296 296 294 291 290 291 293 292 293 292 292 291 290 289 286 283 281 276 273 270 268 266 267 264 258 254 252 253 250 249
234 237 241 247 260 268 273 277 280 286 292 297 297 295 295 296 296 295 296 298 302 304 305 302 299 296 292 293 293 294 294 294 294 295 295 295 296 295 292 288 282 274 272 270 268 266 262 257 253 249 248 249 247 243
238 244 250 254 263 271 278 284 287 289 296 296 296 298 297 297 299 302 305 308 309 308 305 303 301 297 297 297 298 296 294 295 296 298 300 300 301 300 299 294 287 281 276 269 257 250 244 247 245 247 247 245 242 241
245 249 255 264 272 280 285 289 293 296 296 298 299 299 301 305 308 310 311 310 309 309 308 306 302 301 301 301 298 299 301 304 303 303 308 310 312 309 308 306 299 288 270 253 245 235 231 236 240 242 242 240 235 232
257 262 269 276 281 286 290 293 295 298 299 300 301 304 306 308 310 311 312 312 313 313 307 305 303 303 303 302 306 305 307 307 311 318 315 315 318 315 307 297 307 299 265 245 235 219 219 223 230 235 238 234 225 222
271 277 280 282 286 290 295 295 299 300 301 302 304 306 308 310 315 316 317 316 313 310 307 304 304 304 306 306 305 309 310 322 328 319 323 330 329 338 356 7 1 358 113 139 191 213 214 219 222 229 238 237 235 230
284 284 284 291 296 295 299 300 301 303 304 305 306 309 314 317 320 320 321 316 314 311 308 307 307 309 305 303 310 315 320 327 330 336 349 351 5 20 31 12 14 65 104 116 131 177 219 230 232 238 244 247 247 233
281 293 302 292 294 300 302 305 306 305 306 308 312 316 320 322 322 323 319 317 315 312 310 309 311 310 303 302 317 324 332 335 13 20 27 29 35 43 46 46 73 84 96 106 114 136 179 220 250 249 256 278 290 256
299 300 296 298 301 304 307 307 310 310 311 314 319 321 323 323 324 322 321 320 318 313 311 313 312 308 301 307 315 329 326 5 44 47 47 57 67 67 56 76 81 82 87 102 104 107 101 166 282 123 159 208 9 249
296 298 302 305 307 309 310 312 313 314 315 319 322 324 325 326 326 325 324 323 321 315 313 313 308 312 292 301 302 283 322 63 75 78 87 89 92 88 88 89 90 86 80 80 87 85 83 88 88 92 127 145 158 212
302 307 309 310 311 311 313 315 316 317 320 322 324 327 328 328 328 327 327 325 323 317 314 315 317 296 269 235 203 216 230 168 121 119 120 118 106 101 101 101 98 95 93 90 89 90 90 92 89 83 88 99 123 177
307 311 314 313 314 318 318 317 319 321 323 325 328 329 330 331 330 331 332 330 325 327 327 326 319 239 212 217 217 208 213 207 168 156 147 136 120 117 114 104 101 105 103 95 94 89 87 84 89 92 98 105 110 114
313 316 315 317 319 318 319 321 322 323 325 327 329 332 334 334 335 337 338 335 338 341 339 325 279 217 211 211 217 234 234 230 196 196 196 175 160 141 139 129 126 117 121 114 102 98 98 103 106 111 107 104 103 106
315 315 317 319 319 321 322 323 322 325 327 330 334 337 337 338 338 340 341 343 344 345 337 307 264 243 220 216 224 240 236 242 214 209 225 253 244 205 163 104 85 122 125 126 115 124 126 129 134 139 138 139 141 142
315 317 319 321 322 323 324 324 324 328 333 337 340 341 342 342 343 344 347 350 349 347 337 302 259 213 222 224 234 240 243 270 234 225 234 248 270 290 213 167 175 94 347 18 342 288 182 137 154 150 152 152 152 148
319 319 321 323 322 325 326 327 331 336 341 344 345 346 347 347 348 348 350 351 353 358 336 338 347 261 227 243 250 257 252 272 269 248 255 267 277 292 296 283 279 282 282 271 268 263 273 264 242 175 160 157 154 152
318 320 322 322 325 328 331 337 339 342 346 347 349 350 352 351 350 349 348 349 356 6 5 79 51 350 241 240 247 195 129 219 267 290 269 277 287 288 304 306 287 273 263 265 249 232 236 245 218 196 174 167 174 175
319 321 323 326 329 334 341 342 345 345 348 350 352 354 354 355 354 351 348 351 352 344 336 86 56 61 71 132 122 116 115 110 351 337 342 274 295 296 287 276 251 225 201 222 219 215 178 195 199 196 191 184 201 226
320 326 328 330 334 343 346 346 349 348 349 350 353 355 356 355 355 353 348 341 338 329 313 164 171 152 130 105 101 92 79 59 35 8 336 290 296 294 283 268 220 202 205 221 216 201 204 228 227 221 213 208 225 250
325 328 330 335 346 348 347 349 350 350 348 350 353 354 355 355 354 350 343 338 337 329 310 304 290 260 228 256 25 27 41 16 335 334 351 333 283 282 269 264 255 213 205 219 225 216 224 233 229 235 237 242 248 259
325 329 333 344 347 348 348 349 350 350 348 349 352 352 352 354 352 348 342 331 323 313 283 296 306 289 268 263 269 280 287 295 299 302 306 311 300 296 271 260 258 247 228 228 240 238 237 246 251 249 252 263 274 283
326 330 340 347 345 347 348 348 347 349 347 348 349 349 350 350 351 348 340 333 323 315 297 281 275 281 276 261 261 269 276 279 281 279 282 274 261 265 265 263 257 241 234 221 224 237 246 250 255 258 260 269 277 284
329 334 343 343 343 345 346 345 345 346 345 345 347 347 347 346 348 345 343 333 321 311 299 283 278 274 273 262 262 271 275 276 280 279 278 277 268 261 255 255 259 262 259 256 258 259 262 266 266 267 271 277 282 287
332 339 341 339 341 344 344 342 343 343 342 343 344 343 344 344 343 343 340 336 320 311 299 288 273 265 271 270 265 266 271 274 275 277 277 276 277 273 270 266 264 264 266 267 268 267 266 266 268 272 276 280 283 288
334 338 336 337 339 341 339 340 341 341 340 341 341 341 340 340 340 339 338 334 328 314 303 292 282 274 258 255 264 266 266 270 273 277 278 279 279 275 272 271 270 268 267 268 269 271 273 274 276 276 278 282 285 287
332 332 334 335 336 336 337 338 339 339 338 340 339 338 336 337 337 337 336 334 326 314 303 298 289 272 270 266 263 262 266 271 275 277 279 279 280 279 278 278 277 277 277 277 279 280 283 283 280 279 281 282 284 287
328 331 333 333 333 334 335 337 337 336 337 338 338 336 334 334 333 334 332 331 321 310 302 296 288 279 269 265 267 270 271 274 276 279 280 279 281 284 284 285 285 285 287 290 291 290 287 287 287 286 285 284 284 286
327 328 330 330 331 332 334 335 334 334 336 336 336 334 332 332 332 331 332 332 324 312 303 295 290 283 277 271 267 271 273 268 270 278 285 289 289 287 290 294 295 294 295 296 294 294 295 293 291 290 288 285 286 288
324 326 328 328 329 332 332 332 332 333 333 333 333 333 333 332 331 331 331 333 329 323 311 300 296 283 278 280 282 280 280 281 273 267 276 288 294 295 297 298 299 300 302 299 304 307 305 302 298 296 293 292 293 295
322 324 325 326 329 329 330 330 331 330 330 331 331 332 333 333 333 336 336 336 336 328 317 307 298 291 294 292 287 286 287 288 291 286 283 288 293 296 294 295 296 299 304 305 311 313 311 309 306 304 302 299 299 300
321 322 323 325 325 327 328 329 328 328 329 330 330 330 332 333 332 334 336 337 339 338 332 326 322 311 300 298 299 299 296 291 289 290 296 296 297 299 296 297 300 306 310 309 311 314 314 317 313 308 306 304 302 301
318 320 322 322 324 325 327 328 327 327 330 330 330 329 329 330 333 330 332 335 338 340 339 336 331 327 321 311 306 302 299 295 295 301 303 300 299 296 293 294 299 304 305 309 314 313 309 311 311 308 307 305 302 300
315 318 319 321 322 325 327 329 330 330 331 331 330 331 331 330 332 331 329 329 333 337 336 337 337 338 331 324 315 308 303 303 306 310 310 307 302 296 293 295 298 303 308 311 314 310 307 308 306 305 305 304 302 300
Height
10631 10633 10634 10635 10636 10636 10635 10634 10633 10631 10629 10627 10624 10619 10616 10611 10605 10599 10594 10586 10577 10568 10560 10547 10533 10519 10503 10486 10472 10460 10450 10436 10425 10414 10405 10395 10389 10383 10377 10374 10371 10368 10364 10365 10366 10368 10373 10378 10377 10381 10379 10383 10401 10412
10627 10628 10629 10630 10630 10629 10628 10627 10625 10622 10620 10617 10612 10607 10603 10599 10593 10585 10576 10568 10558 10547 10533 10518 10504 10489 10471 10461 10451 10436 10424 10411 10400 10392 10384 10376 10370 10364 10359 10355 10353 10351 10349 10351 10353 10358 10359 10355 10354 10355 10356 10364 10377 10384
10622 10624 10624 10624 10624 10623 10621 10619 10616 10612 10610 10605 10600 10595 10589 10584 10578 10570 10557 10546 10535 10519 10502 10490 10475 10457 10447 10436 10424 10414 10404 10395 10385 10378 10371 10363 10360 10352 10346 10343 10341 10340 10340 10340 10341 10345 10342 10342 10341 10342 10344 10351 10362 10369
10618 10618 10618 10618 10618 10616 10613 10610 10607 10603 10599 10594 10589 10582 10573 10566 10559 10550 10538 10523 10509 10491 10474 10459 10445 10432 10423 10415 10406 10397 10389 10382 10374 10367 10361 10353 10349 10344 10338 10334 10333 10332 10331 10331 10333 10334 10334 10333 10333 10332 10334 10342 10350 10356
10613 10613 10613 10612 10610 10607 10605 10601 10598 10593 10588 10582 10574 10566 10556 10548 10540 10529 10515 10497 10480 10466 10448 10435 10423 10415 10406 10398 10392 10385 10379 10373 10366 10362 10354 10349 10343 10339 10335 10332 10329 10326 10325 10326 10328 10328 10326 10327 10327 10327 10327 10335 10339 10344
10608 10607 10606 10604 10602 10600 10597 10593 10589 10583 10576 10567 10559 10550 10540 10529 10517 10502 10484 10470 10455 10440 10427 10417 10409 10401 10394 10388 10383 10378 10371 10367 10362 10356 10351 10346 10341 10336 10331 10329 10326 10323 10323 10323 10324 10323 10322 10321 10322 10322 10326 10330 10336 10344
10602 10601 10599 10598 10596 10594 10590 10585 10579 10571 10563 10553 10543 10532 10520 10506 10492 10476 10458 10443 10431 10420 10410 10402 10396 10391 10384 10379 10377 10373 10369 10365 10360 10355 10350 10345 10341 10338 10333 10329 10327 10325 10323 10323 10323 10322 10322 10322 10323 10324 10327 10331 10334 10340
10596 10596 10595 10593 10590 10587 10582 10576 10568 10559 10549 10537 10526 10512 10497 10482 10468 10453 10436 10425 10414 10404 10396 10390 10387 10383 10377 10372 10372 10369 10366 10362 10360 10355 10351 10347 10342 10339 10336 10333 10330 10328 10327 10326 10325 10325 10324 10324 10325 10328 10331 10334 10336 10338
10594 10593 10591 10588 10584 10579 10572 10565 10556 10545 10533 10521 10508 10492 10476 10461 10445 10429 10418 10409 10400 10392 10385 10382 10379 10376 10372 10370 10369 10366 10364 10362 10360 10356 10353 10350 10349 10345 10340 10336 10334 10332 10331 10331 10332 10332 10331 10329 10328 10332 10333 10335 10335 10338
10590 10588 10586 10581 10576 10570 10562 10553 10542 10531 10518 10504 10490 10474 10458 10441 10424 10413 10403 10396 10389 10383 10378 10376 10373 10372 10369 10368 10366 10365 10364 10362 10359 10358 10356 10354 10352 10349 10347 10343 10340 10337 10337 10336 10336 10336 10334 10332 10333 10333 10333 10335 10337 10339
10585 10583 10579 10574 10568 10561 10552 10540 10528 10515 10502 10488 10474 10457 10440 10424 10412 10402 10393 10386 10381 10377 10374 10371 10370 10369 10366 10365 10365 10364 10362 10362 10362 10360 10358 10356 10354 10353 10351 10349 10346 10344 10343 10342 10340 10340 10340 10339 10338 10336 10336 10337 10339 10340
10581 10577 10572 10567 10560 10551 10541 10528 10515 10501 10486 10472 10458 10442 10425 10412 10402 10393 10386 10381 10376 10373 10369 10367 10367 10366 10365 10364 10363 10362 10360 10361 10362 10363 10361 10358 10356 10355 10354 10354 10352 10349 10347 10347 10347 10346 10345 10344 10343 10343 10344 10344 10344 10345
10575 10571 10565 10559 10551 10542 10530 10517 10503 10487 10472 10458 10443 10427 10415 10404 10394 10386 10381 10376 10373 10370 10367 10365 10364 10364 10362 10362 10362 10361 10361 10362 10364 10363 10362 10362 10357 10356 10357 10356 10356 10357 10356 10353 10353 10352 10351 10349 10349 10348 10348 10347 10347 10347
10569 10564 10558 10552 10543 10532 10520 10508 10492 10478 10463 10447 10432 10419 10408 10397 10389 10382 10377 10373 10369 10367 10365 10363 10362 10361 10360 10360 10360 10360 10361 10362 10364 10365 10366 10364 10362 10362 10362 10360 10363 10363 10362 10362 10360 10359 10358 10357 10354 10353 10352 10352 10352 10352
10563 10558 10551 10543 10534 10523 10511 10498 10484 10469 10454 10438 10425 10412 10402 10393 10385 10379 10375 10371 10369 10366 10364 10361 10360 10360 10359 10358 10359 10360 10361 10363 10366 10365 10365 10365 10366 10366 10366 10365 10364 10363 10362 10362 10361 10359 10359 10358 10358 10357 10356 10357 10357 10357
10558 10551 10544 10536 10526 10515 10504 10489 10474 10460 10445 10430 10418 10407 10398 10390 10382 10377 10372 10370 10367 10365 10363 10361 10360 10359 10358 10358 10358 10359 10361 10362 10364 10367 10366 10364 10365 10365 10364 10365 10365 10363 10361 10360 10358 10358 10358 10358 10358 10358 10358 10358 10359 10359
10551 10544 10537 10528 10519 10508 10495 10481 10467 10452 10438 10426 10414 10404 10396 10388 10381 10376 10372 10368 10366 10365 10363 10362 10361 10359 10359 10358 10358 10359 10360 10362 10362 10363 10364 10364 10363 10363 10362 10361 10361 10361 10359 10358 10357 10357 10357 10358 10358 10358 10358 10359 10360 10360
10544 10537 10530 10521 10512 10500 10488 10474 10460 10445 10433 10422 10412 10402 10394 10387 10381 10376 10371 10368 10366 10365 10364 10362 10361 10360 10359 10358 10357 10358 10359 10360 10362 10362 10362 10362 10361 10359 10357 10355 10355 10356 10356 10356 10355 10355 10355 10356 10356 10357 10357 10358 10359 10360
10538 10531 10524 10515 10504 10493 10481 10467 10455 10441 10429 10420 10410 10400 10393 10386 10380 10375 10372 10369 10366 10365 10364 10362 10362 10361 10360 10360 10358 10358 10358 10359 10359 10359 10359 10358 10357 10355 10354 10352 10352 10354 10354 10354 10354 10354 10354 10354 10355 10355 10355 10356 10357 10357
10531 10525 10517 10507 10496 10485 10474 10463 10451 10438 10426 10417 10408 10399 10392 10385 10379 10374 10370 10368 10366 10364 10363 10362 10361 10360 10360 10359 10358 10358 10358 10359 10358 10358 10357 10357 10355 10355 10353 10352 10352 10353 10353 10353 10353 10354 10353 10353 10353 10353 10353 10352 10352 10352
10525 10518 10510 10499 10489 10479 10468 10457 10446 10434 10423 10414 10406 10398 10390 10384 10379 10373 10369 10366 10364 10362 10361 10360 10359 10358 10357 10356 10356 10356 10357 10357 10357 10356 10355 10355 10354 10355 10353 10352 10352 10352 10352 10352 10352 10352 10352 10351 10351 10351 10350 10349 10348 10347
10518 10511 10502 10492 10484 10474 10463 10451 10440 10429 10419 10411 10403 10395 10388 10382 10377 10372 10367 10364 10361 10359 10358 10358 10357 10355 10354 10353 10353 10353 10354 10353 10352 10352 10351 10352 10352 10351 10351 10350 10350 10349 10349 10349 10349 10349 10348 10348 10347 10346 10346 10345 10343 10342
10510 10503 10493 10486 10478 10469 10457 10446 10435 10424 10415 10407 10399 10392 10386 10380 10375 10369 10365 10362 10359 10356 10354 10353 10353 10351 10351 10350 10350 10350 10350 10348 10348 10348 10347 10347 10348 10347 10347 10346 10345 10344 10344 10344 10344 10343 10343 10342 10341 10340 10340 10339 10337 10336
10502 10493 10486 10478 10470 10461 10452 10442 10431 10419 10411 10403 10395 10387 10382 10375 10370 10366 10361 10357 10355 10352 10350 10349 10348 10347 10346 10346 10345 10345 10344 10343 10342 10342 10343 10341 10342 10342 10341 10341 10339 10339 10338 10338 10337 10336 10336 10335 10334 10333 10331 10330 10328 10326
10493 10485 10479 10471 10463 10453 10445 10435 10427 10415 10406 10399 10390 10382 10375 10370 10365 10361 10356 10352 10349 10347 10345 10343 10341 10341 10341 10340 10339 10338 10338 10337 10336 10336 10336 10336 10334 10334 10334 10333 10332 10331 10330 10329 10328 10327 10326 10326 10325 10324 10322 10320 10318 10316
10485 10478 10471 10463 10455 10447 10439 10429 10419 10410 10403 10395 10386 10377 10370 10365 10360 10355 10351 10348 10345 10341 10339 10338 10336 10335 10334 10333 10332 10331 10330 10330 10330 10329 10329 10329 10328 10327 10326 10326 10325 10322 10320 10319 10318 10317 10316 10315 10313 10312 10311 10309 10306 10304
10477 10469 10461 10454 10447 10439 10430 10421 10412 10405 10398 10390 10382 10372 10365 10360 10355 10350 10346 10342 10338 10336 10334 10332 10330 10329 10328 10327 10324 10324 10325 10324 10322 10322 10321 10322 10321 10320 10318 10317 10317 10314 10311 10311 10310 10308 10305 10303 10302 10301 10299 10296 10295 10293
10467 10460 10454 10447 10438 10429 10421 10411 10404 10397 10391 10384 10376 10368 10360 10354 10350 10344 10340 10336 10333 10330 10328 10326 10325 10324 10321 10319 10318 10316 10316 10319 10317 10314 10312 10311 10313 10312 10311 10310 10308 10307 10303 10301 10300 10298 10297 10294 10292 10291 10290 10287 10285 10285
10459 10451 10444 10436 10429 10421 10412 10403 10395 10388 10382 10375 10368 10362 10356 10351 10346 10342 10337 10332 10328 10324 10322 10321 10320 10317 10315 10313 10312 10311 10311 10311 10312 10310 10306 10305 10304 10304 10302 10300 10298 10297 10297 10292 10291 10291 10289 10286 10283 10283 10282 10280 10278 10277
10450 10443 10434 10426 10419 10411 10403 10394 10387 10380 10372 10365 10360 10355 10351 10345 10341 10336 10332 10328 10325 10321 10318 10316 10314 10311 10310 10310 10308 10305 10304 10304 10304 10304 10302 10301 10299 10298 10297 10295 10292 10290 10290 10286 10284 10284 10282 10280 10277 10275 10274 10273 10271 10270
10440 10433 10425 10417 10409 10402 10394 10387 10380 10371 10365 10359 10354 10349 10345 10340 10336 10333 10329 10325 10321 10317 10314 10312 10310 10308 10307 10304 10302 10300 10299 10298 10297 10296 10295 10295 10294 10292 10291 10289 10285 10284 10283 10281 10279 10278 10276 10274 10273 10271 10269 10267 10266 10265
10429 10422 10415 10407 10400 10393 10386 10379 10371 10364 10359 10353 10348 10344 10340 10337 10334 10330 10326 10322 10318 10316 10313 10310 10307 10305 10304 10302 10299 10296 10294 10292 10290 10290 10290 10289 10288 10287 10286 10283 10281 10280 10277 10276 10275 10273 10270 10269 10269 10267 10264 10262 10261 10260
10419 10413 10405 10398 10391 10384 10378 10371 10364 10358 10352 10347 10343 10339 10335 10332 10329 10326 10323 10320 10317 10314 10310 10307 10303 10301 10300 10299 10297 10294 10291 10288 10287 10286 10285 10284 10283 10282 10280 10279 10277 10274 10272 10270 10270 10268 10266 10265 10263 10262 10260 10258 10256 10255